Hourly Data Report for October 19, 2013

All times are specified in Local Standard Time (LST). Add 1 hour to adjust for Daylight Saving Time where and when it is observed.

OTTAWA INTL A
ONTARIO

45°19'00.000" N
75°40'00.000" W
114.90 m
6106001
71628
YOW

Download Data

Hourly Data (October 2013)
Hourly Data Report for October 19, 2013
Temp Definition
°C
Dew Point Temp Definition
°C
Rel Hum Definition
%
Wind Dir Definition
10's deg

Wind Spd Definition
km/h
Visibility Definition
km
Stn Press Definition
kPa
Hmdx Definition


Wind Chill Definition


Weather Definition


TIME
00:00 Legend Double Dagger 9.2 5.6 78 23 11 24.1 99.70     LegendNANA
01:00 Legend Double Dagger 7.9 5.0 82 23 9 24.1 99.71     Mainly Clear
02:00 Legend Double Dagger 6.3 4.1 86 19 4 24.1 99.69     LegendNANA
03:00 Legend Double Dagger 6.5 4.7 88 23 4 24.1 99.72     LegendNANA
04:00 Legend Double Dagger 7.0 5.0 87 19 5 24.1 99.69     Mostly Cloudy
05:00 Legend Double Dagger 6.6 5.1 90 18 10 24.1 99.70     LegendNANA
06:00 Legend Double Dagger 5.7 5.0 95 16 8 24.1 99.63     LegendNANA
07:00 Legend Double Dagger 7.4 6.0 91 18 5 24.1 99.68     Cloudy
08:00 Legend Double Dagger 8.6 7.1 90 14 7 19.3 99.63     LegendNANA
09:00 Legend Double Dagger 10.5 8.4 87 17 10 24.1 99.60     LegendNANA
10:00 Legend Double Dagger 12.6 9.5 81 18 11 24.1 99.57     Mostly Cloudy
11:00 Legend Double Dagger 12.7 9.2 79 19 9 16.1 99.54     LegendNANA
12:00 Legend Double Dagger 12.7 9.2 79 18 8 19.3 99.46     LegendNANA
13:00 Legend Double Dagger 13.2 9.1 76 18 10 19.3 99.37     Cloudy
14:00 Legend Double Dagger 14.5 10.0 74 14 9 19.3 99.22     LegendNANA
15:00 Legend Double Dagger 14.6 8.6 67 17 14 16.1 99.15     LegendNANA
16:00 Legend Double Dagger 9.4 8.5 94 31 15 19.3 99.18     Thunderstorms,Rain Showers
17:00 Legend Double Dagger 10.0 8.8 92 2 4 19.3 99.07     LegendNANA
18:00 Legend Double Dagger 8.9 8.3 96 8 11 16.1 99.00     LegendNANA
19:00 Legend Double Dagger 8.5 7.9 96 7 11 16.1 98.89     Cloudy
20:00 Legend Double Dagger 8.6 7.9 95 9 14 19.3 98.80     LegendNANA
21:00 Legend Double Dagger 9.3 7.9 91 16 11 16.1 98.79     Rain
22:00 Legend Double Dagger 9.5 8.6 94 20 14 8.1 98.77     Rain,Fog
23:00 Legend Double Dagger 9.5 9.1 97 19 10 6.4 98.72     Rain,Fog

Notes on Data Quality.

Legend

  • E = Estimated
  • M = Missing
  • NA = Not Available
  • ‡ = Partner data that is not subject to review by the National Climate Archives
Date modified: